Miscellaneous Local Product
Issued by NWS North Platte, NE

Home | Current Version | Previous Version | Text Only | Print | Product List | Glossary On
Versions: 1 2 3 4 5 6 7 8 9 10 11 12 13 14 15 16 17 18 19 20 21 22 23 24 25 26 27 28 29 30 31 32 33 34 35 36 37 38 39 40 41 42 43 44 45 46 47 48 49 50
000
AXUS43 KLBF 042310
MISLBF


WESTERN AND NORTH CENTRAL NEBRASKA HOURLY WEATHER ROUNDUP
NATIONAL WEATHER SERVICE NORTH PLATTE NE
500 PM CST WED MAR 04 2015

***STATIONS NOT REPORTING VARIABLES SUCH AS SKY/WEATHER OR
PRESSURE ARE PROVIDED BY THE NEBRASKA DEPARTMENT OF
ROADS...RAWS...AND APRS NETWORKS...AND ARE NOT UNDER
NATIONAL WEATHER SERVICE QUALITY CONTROL***

...OBSERVATIONS IN AND NEAR THE EASTERN PANHANDLE OF NEBRASKA...

CITY           SKY/WX    TMP DP  RH WIND       PRES   REMARKS
WHITECLAY        N/A     20   5  52 W15         N/A  WCI   6
CRESCENT LAKE    N/A     24  -4  29 NW16G23     N/A  WCI  11
LISCO            N/A     29 -11  16 W14         N/A  WCI  18
BIG SPRINGS      N/A     30   8  40 NW12        N/A  WCI  20
LEWELLEN         N/A     26 -10  20 NW16        N/A  WCI  13
$$

...OBSERVATIONS IN NORTH CENTRAL NEBRASKA...

CITY           SKY/WX    TMP DP  RH WIND       PRES   REMARKS
THEDFORD       SUNNY     26  -1  31 NW8G16    30.20S WCI  18
AINSWORTH      SUNNY     19   0  43 NW17      30.24S WCI   4
O`NEILL        SUNNY     19  -2  40 NW21G29   30.29S WCI   3
BROWNLEE         N/A     18  -5  36 NW15        N/A  WCI   4
SPRINGVIEW       N/A     17   1  49 NW12G20     N/A  WCI   4
BREWSTER         N/A     27  -2  28 W15         N/A  WCI  15
ROSE             N/A     26   9  48 W14         N/A  WCI  15
NEWPORT          N/A     24   8  50 W15         N/A  WCI  12
SARGENT          N/A     26   0  33 NW7         N/A  WCI  18
COMSTOCK         N/A     32  -1  23 NW13        N/A  WCI  23
CHAMBERS         N/A     20  -6  31 N7G18       N/A  WCI  11
EWING            N/A     19   0  43 N12G21      N/A  WCI   7
$$

...OBSERVATIONS IN SOUTHWEST NEBRASKA AND FAR NORTHEAST COLORADO...

CITY           SKY/WX    TMP DP  RH WIND       PRES   REMARKS
WRAY           FAIR      30   4  33 NW8       30.18R WCI  23
OGALLALA       PTSUNNY   30   3  31 NW15G21   30.18S WCI  19
LEXINGTON      MOSUNNY   31   5  33 NW18      30.21S WCI  19
PAXTON           N/A     28   5  37 NW12        N/A  WCI  18
BRADY            N/A     29   2  30 S5G14       N/A  WCI  24
GOTHENBURG       N/A     27   1  31 NW15        N/A  WCI  15
CALLAWAY         N/A     27   2  34 NW14        N/A  WCI  16
$$

...NORTH PLATTE AREA...

CITY           SKY/WX    TMP DP  RH WIND       PRES   REMARKS
DOWNTOWN         N/A     28  -1  28 NW10G23     N/A  WCI  19
$$

...SOME WEATHER OBSERVATIONS FROM AROUND THE REGION...

CITY           SKY/WX    TMP DP  RH WIND       PRES   REMARKS
HAYS           SUNNY     32   1  27 N15G21    30.27R WCI  22
LIBERAL        CLOUDY    27  14  59 N14       30.24F WCI  15
$$



USA.gov is the U.S. government's official web portal to all federal, state and local government web resources and services.